Theta_e
331 332 332 331 332 335 337 339 340 340 340 341 339 338 338 336 336 335 334 334 332 331 329 327 327 325 324 324 323 323 324 324 325 325 325 325 325 324 324 324 325 325 325 326 326 325 325 325 327 329 329 330 330 330 331 331 331 331 331 331 331 330 330 331 333 334 334 332 330 330 329 329 329 329 329 330 329 328 328 327 328 327 327 328 329
329 332 332 331 332 334 336 337 339 338 339 340 339 338 337 335 335 335 334 333 330 329 328 326 325 324 323 323 322 322 323 323 324 324 323 322 322 322 322 323 323 323 324 325 325 324 324 324 325 327 327 328 330 331 331 331 330 330 331 331 331 330 330 332 332 332 332 333 332 331 332 331 328 327 327 329 328 328 328 328 327 328 328 328 328
329 332 332 330 332 333 334 336 337 336 337 338 338 338 337 335 334 335 333 330 329 329 328 326 324 324 322 321 321 322 323 324 323 323 323 321 322 322 323 323 323 323 323 324 324 323 323 322 323 325 326 327 328 330 330 329 329 330 330 330 330 329 331 332 331 330 331 332 333 332 333 333 332 330 328 329 329 328 328 328 329 328 328 328 328
332 334 334 331 331 333 333 335 336 335 335 335 336 337 335 334 334 334 331 328 328 329 327 326 325 325 323 323 323 323 324 324 323 322 322 322 322 322 322 323 324 323 323 323 322 322 322 321 321 323 323 324 325 326 328 328 329 330 329 329 329 329 331 331 331 331 330 331 332 332 333 334 334 334 332 331 331 330 328 328 329 329 329 328 328
331 332 333 332 332 334 333 334 335 335 334 334 334 335 334 333 333 333 330 327 329 328 327 327 325 325 325 324 325 323 322 322 321 322 322 322 321 321 322 323 323 323 323 322 321 321 321 321 321 321 321 322 322 323 324 325 325 327 328 329 328 329 329 329 329 330 330 330 331 332 333 333 334 334 333 334 333 331 330 330 330 329 329 329 329
328 329 331 333 334 334 333 333 334 335 334 333 333 333 333 332 333 333 329 328 329 328 328 326 323 324 324 322 322 321 321 322 322 321 321 321 321 321 322 323 323 323 323 322 321 321 321 321 320 320 320 321 321 322 321 321 321 322 324 326 328 329 329 327 327 328 329 328 328 330 330 331 333 333 334 335 333 331 331 332 331 330 329 329 330
326 327 329 332 335 334 334 333 333 333 333 333 333 333 332 332 334 332 329 328 328 328 328 324 322 323 322 320 320 320 321 322 321 321 321 321 320 321 322 322 323 323 323 322 322 322 321 321 321 321 320 320 321 321 320 321 321 321 322 323 324 325 327 327 326 327 328 327 326 327 327 327 328 331 332 334 334 333 331 329 330 330 330 329 329
324 326 328 331 333 335 335 334 333 333 333 333 333 333 331 330 333 332 328 329 329 329 327 323 323 323 321 321 320 319 321 322 322 322 321 320 320 322 322 322 322 322 322 322 322 321 321 321 320 319 318 317 317 318 318 319 320 320 321 322 322 322 323 325 325 325 326 326 326 327 327 325 325 328 329 329 330 332 332 330 329 329 329 329 329
323 325 327 329 332 334 334 334 333 332 332 333 333 333 331 330 333 331 328 329 329 328 325 323 324 323 322 322 319 319 321 321 320 321 320 320 321 321 321 321 321 321 321 320 319 319 319 318 317 316 316 315 314 314 315 316 318 319 319 320 321 321 321 322 323 322 322 323 324 325 326 325 325 327 328 326 326 328 330 331 330 328 328 327 328
321 322 324 326 329 331 333 334 333 332 332 332 333 333 330 330 332 331 328 328 329 328 325 323 324 323 322 321 319 320 321 319 319 321 320 320 320 320 320 320 320 320 319 317 317 318 317 317 316 315 315 315 315 315 315 316 317 317 318 318 319 319 319 320 321 321 320 320 321 322 322 323 325 326 326 325 325 326 327 329 328 329 330 327 325
319 319 321 323 324 326 330 334 333 333 332 332 333 333 330 330 332 330 327 328 330 328 325 323 324 323 322 321 320 321 321 319 319 321 320 321 320 319 319 319 319 318 317 317 317 317 317 317 316 315 315 315 316 317 316 317 317 317 317 317 317 317 317 318 318 318 318 318 318 320 320 320 321 322 322 322 322 323 324 326 326 327 329 327 324
319 319 322 324 324 323 326 332 334 333 332 333 333 332 330 331 332 330 327 327 329 328 324 324 324 323 323 321 320 321 321 320 321 321 320 321 320 319 319 320 319 317 317 317 318 318 318 317 317 316 316 316 316 316 316 317 317 317 317 317 317 317 317 317 317 317 317 316 315 316 317 318 318 319 320 320 320 320 321 321 320 320 321 322 323
319 320 323 324 325 325 325 330 333 333 332 332 333 332 331 332 331 330 327 327 329 328 324 324 324 323 324 323 321 321 321 320 321 322 321 320 320 319 319 319 319 318 317 317 318 318 319 318 318 318 316 316 315 316 316 317 317 317 317 317 316 317 316 316 316 316 316 316 316 315 315 316 316 316 316 316 316 317 318 318 318 317 317 318 318
320 321 324 325 326 327 328 331 332 332 331 331 332 332 331 332 331 329 328 327 329 328 325 324 325 324 324 323 322 321 321 320 320 321 321 320 320 320 319 319 320 319 318 318 318 318 319 318 319 318 317 316 316 316 316 316 317 316 316 317 317 316 317 316 316 316 316 316 316 315 314 315 315 314 315 315 315 315 315 315 316 316 316 316 316
322 322 325 326 328 328 329 331 330 329 329 330 331 331 331 331 330 328 328 327 328 329 326 324 325 325 323 323 323 321 322 321 319 320 321 320 319 320 320 319 319 319 319 319 319 318 319 319 319 318 317 316 316 316 316 316 316 316 315 316 317 316 316 316 315 315 315 315 315 315 314 314 314 314 314 314 314 315 314 314 314 314 314 315 316
324 324 324 326 328 328 328 328 328 328 328 329 329 330 330 330 329 328 327 327 327 329 327 324 324 325 324 324 323 322 322 321 319 318 320 320 319 320 320 318 318 319 319 319 320 319 319 319 319 319 318 317 316 316 316 316 315 316 316 316 316 315 315 316 316 316 315 315 315 314 315 314 312 313 313 313 314 314 314 314 314 314 314 314 314
323 324 325 326 327 328 328 328 328 327 328 328 328 329 329 329 329 328 327 327 327 328 327 325 324 324 324 324 324 324 322 322 320 318 320 321 320 320 320 319 318 318 319 320 320 318 319 320 319 319 318 317 316 316 316 316 315 316 316 316 316 315 316 316 316 316 315 315 315 314 315 314 312 312 313 312 313 313 313 314 314 314 314 313 313
323 324 324 326 328 328 327 327 326 327 327 327 327 327 328 328 328 328 327 327 328 328 327 326 325 325 324 324 325 325 324 323 322 320 320 322 321 320 320 320 319 319 319 320 321 319 320 320 319 319 319 318 316 315 315 315 315 315 316 316 316 315 315 315 315 315 315 315 314 313 314 314 312 312 312 312 312 313 313 313 313 314 314 314 314
322 322 322 324 326 326 326 326 326 326 327 327 327 327 327 328 327 327 326 327 327 327 326 325 325 325 325 325 326 325 325 324 322 321 322 323 322 321 320 320 320 319 319 321 321 319 320 320 319 319 319 318 317 316 316 315 315 315 315 315 315 314 315 315 315 315 314 314 314 313 313 313 312 311 312 313 313 312 312 312 311 312 313 314 315
320 320 321 322 324 324 324 324 325 325 325 326 326 326 327 327 326 327 326 326 326 325 325 325 325 325 325 325 326 326 325 324 323 322 322 323 323 322 321 320 321 320 320 321 321 319 320 320 319 319 320 319 317 316 316 315 315 315 314 315 314 314 315 315 314 314 313 313 314 312 312 312 311 310 310 312 311 311 312 311 311 311 311 312 313
318 318 320 321 323 324 323 323 323 324 324 324 324 325 325 325 325 325 325 325 325 324 324 324 324 324 324 324 324 325 324 324 323 323 323 323 323 323 322 321 322 321 320 321 321 319 320 320 320 320 320 319 318 316 316 315 315 316 315 315 315 314 314 314 314 314 312 312 312 312 311 311 310 310 310 310 310 310 311 311 311 311 311 311 312
317 317 317 318 321 322 322 322 323 322 323 323 323 323 324 324 324 324 324 324 324 324 324 324 324 324 324 324 323 323 323 322 323 322 323 323 322 323 324 322 322 322 321 321 321 320 320 320 320 320 320 320 318 317 316 315 315 315 315 316 315 314 313 314 314 313 312 312 312 310 310 311 310 310 309 309 309 309 309 309 310 310 310 311 310
316 316 316 317 317 318 318 320 320 321 321 321 322 322 322 322 323 323 323 323 323 324 323 324 324 324 324 324 324 324 322 322 322 322 322 322 321 321 323 323 323 323 323 322 321 320 320 320 320 320 320 320 319 318 317 316 315 315 315 315 315 314 313 314 313 313 312 312 311 311 311 311 310 310 310 309 309 309 309 309 309 309 309 310 310
316 315 316 316 315 315 316 316 316 317 317 318 319 319 319 320 320 321 322 323 323 323 323 323 323 323 324 324 324 324 323 322 323 323 323 322 321 320 321 323 323 323 323 323 322 320 320 321 320 320 321 320 319 319 318 317 315 315 315 315 315 313 313 313 313 312 311 311 311 311 311 310 310 309 309 309 309 309 309 308 308 308 308 309 310
315 315 315 315 314 314 315 315 314 314 315 315 315 315 316 316 316 316 318 319 320 321 323 324 324 324 324 324 325 325 324 324 324 324 324 323 322 322 322 322 322 323 324 323 323 321 320 321 321 321 320 320 320 319 318 317 316 315 315 315 314 314 313 313 313 312 311 311 310 310 310 309 309 308 308 309 309 308 308 307 307 307 307 307 308
315 315 315 315 315 315 315 314 314 313 313 313 313 313 313 313 313 313 314 314 315 315 317 320 322 323 324 324 324 324 324 325 325 325 325 323 323 323 323 322 322 323 323 323 323 322 321 321 321 321 321 320 320 319 318 317 316 315 315 315 314 314 313 313 312 311 310 310 310 310 309 308 308 307 307 308 307 307 307 307 307 307 307 307 307
315 315 315 315 315 315 314 313 313 312 312 311 311 311 311 311 311 311 311 312 312 312 312 314 315 318 320 322 322 322 323 325 325 324 324 324 323 324 324 323 323 323 323 323 323 323 322 322 322 321 321 321 320 319 318 317 317 316 315 315 315 314 313 312 311 311 310 310 309 308 308 307 307 306 306 306 306 306 306 306 306 307 307 307 307
314 314 315 314 314 313 314 313 312 312 311 310 310 310 310 310 310 310 310 310 310 310 310 311 311 313 314 315 316 318 320 321 322 322 323 323 324 323 323 322 323 324 324 323 323 323 322 322 322 321 321 321 320 319 318 317 317 316 315 315 314 314 313 312 311 310 309 309 308 307 306 306 305 305 305 304 302 301 301 302 302 303 304 305 305
313 313 314 313 313 313 313 312 311 311 311 310 310 310 310 310 310 309 309 309 309 309 309 309 309 310 311 311 311 312 314 315 317 319 321 322 323 322 322 321 321 323 323 323 323 323 322 322 322 321 321 321 320 319 318 318 317 316 316 315 314 313 312 312 311 310 309 308 307 305 305 305 304 303 302 300 297 295 295 296 297 299 300 302 303
312 313 312 312 311 312 312 311 310 310 310 310 310 309 309 310 309 309 309 308 308 309 309 309 308 309 309 309 309 310 310 311 313 314 316 318 320 321 322 322 321 322 322 322 322 322 322 323 322 321 321 321 319 318 318 317 317 316 315 314 314 313 312 311 311 309 308 307 306 305 305 304 303 301 300 299 298 297 297 296 296 297 298 299 301
312 311 311 311 310 311 311 311 310 310 309 309 308 308 309 309 308 308 308 308 308 308 309 309 309 309 309 309 309 309 309 310 310 311 312 313 315 317 320 321 321 320 321 321 322 322 322 322 322 321 320 320 318 318 318 317 316 315 314 314 313 312 311 310 309 307 306 306 305 305 304 304 302 302 301 301 301 300 299 298 297 297 297 297 298
311 310 310 310 309 310 310 310 309 309 309 308 308 308 308 309 308 308 307 307 308 308 309 309 309 309 308 309 309 309 309 309 309 310 311 311 312 313 316 319 319 320 320 320 320 321 321 321 321 320 320 319 318 317 317 316 315 313 313 313 312 310 309 308 306 306 305 305 304 304 304 303 302 302 302 301 301 300 299 299 299 299 299 298 298
310 309 309 309 309 309 310 309 309 309 308 308 307 308 309 309 308 308 308 307 307 307 308 308 308 308 308 308 308 309 309 309 310 310 311 312 312 312 313 315 317 318 319 319 319 320 320 320 320 320 320 318 318 317 317 315 313 312 311 311 310 308 307 306 305 305 304 304 303 303 303 302 302 301 301 301 301 302 302 302 301 301 301 300 300
309 309 309 309 309 310 309 309 309 308 308 307 308 309 309 308 308 308 307 307 307 307 308 308 308 308 308 308 309 309 309 309 310 310 311 312 312 312 313 313 315 315 317 317 318 319 319 319 319 320 319 319 318 317 316 314 312 310 310 309 308 306 305 305 304 304 304 303 303 303 302 301 301 301 301 301 302 302 302 302 302 302 302 301 301
309 309 309 309 310 309 309 309 308 308 307 308 308 308 308 308 308 308 307 307 308 307 308 308 308 308 308 309 309 309 309 309 309 310 310 311 311 312 313 313 314 315 315 316 316 317 318 318 318 319 319 318 317 316 315 313 311 309 308 307 305 304 303 303 303 303 303 303 302 302 301 301 301 301 301 301 301 301 301 301 301 300 300 301 301
308 309 309 309 309 308 308 309 308 307 307 307 307 307 307 308 308 308 308 307 307 307 308 308 308 308 308 309 310 310 310 310 310 310 310 310 311 312 313 313 313 313 314 315 315 316 317 317 318 319 318 316 314 313 312 311 310 308 306 305 303 303 303 303 303 303 303 302 302 301 301 301 301 301 301 300 299 299 299 299 299 299 299 299 300
308 308 308 308 307 307 307 307 307 307 307 306 307 307 307 307 307 308 307 307 307 307 307 307 307 307 308 308 309 310 310 310 311 310 310 311 311 312 313 313 313 313 313 314 314 315 316 316 316 317 315 313 311 309 309 309 308 306 303 302 303 303 303 302 303 302 302 301 301 301 300 301 301 300 299 299 298 298 298 298 298 298 298 298 299
307 307 306 306 306 306 306 305 306 306 306 306 307 307 307 307 307 307 307 307 306 307 307 307 307 307 307 308 308 309 309 310 310 310 311 311 311 312 312 313 313 313 313 313 313 313 314 315 315 315 313 310 307 306 306 305 303 301 301 301 302 303 302 302 302 301 301 300 300 300 300 299 299 299 298 298 298 297 297 296 297 297 297 297 297
305 306 305 306 306 305 305 305 306 306 306 306 306 306 306 306 307 307 307 306 307 307 307 307 307 307 307 308 308 308 309 309 310 310 310 311 311 312 312 313 314 313 313 313 312 312 314 314 313 311 309 308 305 302 300 300 298 298 299 300 300 300 300 299 299 299 299 299 299 299 298 298 298 298 298 298 297 295 295 295 296 296 296 296 296
304 304 304 304 304 304 304 305 306 306 306 306 306 306 306 306 306 307 307 307 307 307 307 306 307 307 307 307 308 308 309 310 310 310 311 311 311 312 312 312 313 312 312 312 312 313 312 310 308 307 306 305 302 298 296 296 296 297 298 298 297 297 297 297 298 297 297 297 297 297 298 298 298 298 297 296 295 294 293 294 294 295 295 294 294
304 303 303 303 303 303 303 304 304 305 305 305 305 305 306 306 307 307 307 307 307 307 306 306 307 307 307 307 307 308 309 310 310 310 310 311 311 311 311 311 311 311 312 312 312 311 309 305 304 304 303 300 298 295 295 296 296 295 295 295 295 296 296 296 296 296 295 296 296 297 298 298 297 296 295 294 293 293 292 292 292 293 293 293 293
303 303 303 303 303 303 303 303 303 304 304 304 304 304 305 305 305 306 306 306 306 306 306 306 306 307 307 308 308 308 309 309 310 310 310 310 310 310 310 311 311 311 312 312 310 307 305 303 301 300 299 296 295 296 295 295 294 294 293 292 293 294 294 293 293 294 295 296 297 298 298 298 296 295 294 293 292 292 291 290 291 291 291 291 290
302 302 302 302 302 303 303 303 303 303 303 304 304 304 304 304 304 305 305 305 306 306 306 306 307 307 307 308 308 308 309 309 309 309 309 309 309 309 309 310 311 311 311 311 308 305 304 302 300 299 297 296 295 295 294 293 293 293 292 291 291 291 290 291 292 295 296 297 297 298 298 297 296 295 294 293 292 291 290 290 290 290 290 289 289
301 301 301 301 302 302 303 303 303 303 303 303 304 304 304 304 304 304 304 305 305 306 306 307 307 307 307 308 308 308 308 308 308 308 308 308 308 308 309 310 310 310 310 308 306 303 302 301 299 298 297 296 295 293 293 292 292 291 291 291 291 291 292 293 294 295 296 297 297 297 296 295 294 293 292 292 291 290 290 290 290 290 290 290 290
301 301 301 301 302 302 302 303 302 303 303 303 304 304 304 304 304 304 304 305 305 305 306 306 306 306 307 307 307 307 307 307 307 307 307 308 308 308 309 310 309 308 307 305 303 301 301 300 298 298 297 296 295 294 293 292 292 292 292 293 293 294 295 295 294 295 296 296 295 295 294 293 292 292 291 291 291 291 291 291 291 291 290 290 290
302 302 301 301 302 302 302 302 302 302 303 303 304 304 304 304 304 304 305 305 305 305 305 305 305 305 306 306 306 306 307 307 306 307 308 308 308 308 308 308 307 306 305 303 301 300 300 299 298 298 297 296 296 295 295 294 294 294 295 295 296 296 296 295 295 295 296 295 295 294 293 292 292 292 291 292 292 292 292 291 291 291 291 291 291
301 301 301 301 302 302 302 302 302 303 303 303 303 303 304 304 304 304 304 304 304 304 304 304 304 304 305 305 305 306 306 306 306 307 307 307 308 308 307 306 305 304 303 302 300 300 299 298 298 298 297 296 296 296 297 296 296 296 296 296 296 296 296 296 296 296 295 294 293 292 292 292 292 293 293 293 292 292 292 292 292 292 292 292 292
301 300 301 301 302 302 302 302 302 302 303 303 303 303 304 304 304 304 304 304 304 304 304 304 304 304 305 305 305 305 306 306 306 307 306 306 305 305 304 303 303 303 302 301 300 299 298 297 297 296 296 295 296 296 296 295 295 294 294 295 296 296 295 295 295 294 292 291 291 291 292 293 293 293 293 293 292 292 292 292 292 292 292 292 292
300 300 301 301 302 302 302 302 303 303 303 303 303 304 304 305 305 304 304 303 303 303 303 303 303 304 304 304 305 305 306 306 305 304 303 303 303 302 301 300 300 299 298 297 297 297 296 296 296 296 296 297 296 294 292 292 292 292 292 292 293 293 292 292 291 290 290 290 291 292 293 293 293 293 293 292 292 292 291 291 291 291 291 291 291
300 301 301 302 302 302 303 303 303 303 304 304 304 304 305 305 305 304 303 303 302 302 302 303 303 304 304 304 304 305 304 303 302 300 299 299 299 299 299 298 297 296 296 296 296 296 296 296 296 296 296 296 294 292 291 291 291 291 291 291 291 290 290 290 290 290 290 290 292 292 293 293 293 293 292 292 292 291 291 291 291 291 290 291 291
301 301 302 302 302 302 303 303 303 304 304 304 304 305 305 304 303 302 302 301 301 301 301 302 302 302 302 303 303 303 302 300 299 298 297 296 296 296 296 296 295 295 295 296 296 296 296 297 296 294 293 293 291 290 290 291 290 291 291 290 290 291 291 290 290 290 290 291 292 292 293 293 292 292 292 291 291 291 290 290 290 290 290 290 290
Wind_Speed
11 16 20 18 17 17 16 16 16 15 15 16 15 14 14 13 13 12 12 11 10 9 8 7 6 6 5 4 4 4 4 5 4 4 4 4 4 3 2 1 2 3 3 3 2 3 4 5 4 4 4 3 5 5 6 7 8 9 9 10 12 12 13 14 7 6 6 5 5 8 11 12 14 14 10 9 11 11 12 12 12 11 11 11 11
11 14 17 19 18 17 16 15 16 17 16 16 16 15 14 13 13 13 12 12 10 9 8 6 5 5 5 5 5 6 5 5 5 5 5 4 4 4 3 2 2 2 2 2 2 2 3 4 3 4 3 1 1 2 4 5 5 7 7 8 12 13 13 14 10 7 6 5 4 4 7 9 13 17 16 13 13 12 11 11 12 12 11 11 11
14 14 16 18 19 19 17 15 16 17 16 16 16 15 15 14 14 13 13 12 11 9 8 7 5 4 5 6 5 6 6 5 6 5 5 5 4 3 3 2 1 1 1 1 1 1 2 2 3 3 4 4 4 3 2 1 1 3 6 7 10 12 13 12 12 10 7 3 2 2 2 2 5 10 14 13 12 11 11 10 10 11 12 12 12
12 12 14 17 19 20 18 16 16 16 17 17 17 16 16 15 14 14 14 13 12 10 8 7 7 5 6 7 6 7 8 7 7 6 5 5 4 3 3 2 2 2 1 1 2 2 2 2 3 3 4 4 4 3 4 4 3 2 1 4 6 8 9 8 9 9 8 5 2 2 1 1 1 2 5 6 5 7 10 10 12 11 10 10 12
11 11 12 15 17 19 19 18 17 17 17 18 18 18 16 16 16 15 14 14 13 12 10 9 9 8 8 9 8 8 9 7 7 7 6 5 4 4 3 3 3 3 3 3 3 2 2 2 2 3 3 3 4 3 3 4 3 3 3 2 1 2 4 3 4 4 7 8 5 2 1 1 2 0 1 1 2 4 5 6 9 11 10 10 10
10 11 12 14 16 18 20 20 19 18 18 18 19 18 17 17 17 16 15 14 14 14 12 11 10 10 10 10 9 9 8 8 7 7 6 5 5 4 4 3 3 3 4 4 4 3 3 3 3 3 3 3 4 4 3 4 4 4 3 3 3 1 1 1 3 2 4 6 4 2 2 1 1 1 0 0 2 3 3 4 6 7 8 8 8
9 12 13 14 15 16 18 20 21 20 18 18 19 19 18 17 17 17 16 15 15 16 14 12 11 11 10 10 9 9 8 8 7 7 6 6 5 5 4 4 3 3 4 4 4 3 3 3 3 4 4 3 4 4 4 4 4 4 4 3 3 2 2 2 4 2 1 1 0 2 2 1 2 1 0 1 1 1 2 4 6 7 7 7 8
9 11 12 12 13 15 17 19 20 20 20 19 19 20 20 19 18 18 16 16 16 17 16 13 12 12 11 10 9 9 8 9 8 8 7 7 6 5 5 4 4 4 3 4 3 4 4 4 4 4 4 4 4 5 6 5 5 4 4 4 4 4 3 2 2 2 2 3 2 1 3 1 1 2 3 3 3 2 3 2 4 6 6 8 11
5 7 8 9 12 15 17 18 19 20 21 20 19 20 21 20 19 18 17 17 18 18 18 15 13 13 12 11 10 9 9 10 9 8 8 7 7 6 5 5 4 4 3 4 4 5 5 4 4 4 5 5 5 6 6 6 6 5 5 5 4 4 4 4 3 3 3 4 3 2 2 1 1 1 1 1 1 2 2 2 2 4 6 9 10
3 4 4 6 9 12 15 17 19 20 21 21 19 20 21 21 20 20 18 17 19 19 19 17 14 14 13 12 12 11 11 11 10 9 8 8 7 6 5 5 5 4 4 5 5 5 5 5 4 4 5 5 6 6 6 6 6 6 6 6 5 5 4 4 4 4 4 4 4 4 2 1 1 3 4 2 3 5 4 3 5 4 3 7 11
2 2 2 3 6 9 12 16 18 20 21 21 21 21 22 22 21 21 19 18 19 20 20 18 16 14 13 13 13 12 12 12 11 10 9 8 8 7 6 6 5 5 5 5 5 5 5 4 4 4 4 4 5 5 5 5 5 5 5 5 6 5 5 4 4 4 4 3 3 4 4 3 3 1 1 2 2 3 3 4 6 7 6 6 8
2 2 1 1 2 7 11 14 17 19 20 20 20 21 22 22 22 23 21 19 19 20 20 19 17 15 14 14 14 13 13 13 12 11 10 9 9 8 7 7 6 6 6 5 5 5 4 4 3 3 4 4 4 4 4 4 4 5 5 5 6 6 5 5 5 4 4 4 4 4 4 3 3 3 3 3 3 4 5 4 5 5 5 5 6
3 3 3 3 1 4 9 12 15 17 19 19 19 20 21 21 23 23 22 20 19 20 21 19 18 16 15 14 14 14 13 13 12 12 11 10 9 8 8 7 7 7 7 6 6 5 4 4 3 3 3 3 3 3 3 3 3 4 5 5 6 6 6 6 6 6 5 5 4 3 3 3 3 3 3 2 2 4 5 4 6 7 6 6 7
5 5 5 4 3 0 4 8 12 15 17 17 17 19 19 20 22 23 22 21 19 20 20 20 18 17 15 14 14 14 14 13 12 12 12 10 10 9 8 8 8 8 8 7 7 7 5 4 3 3 3 3 2 2 2 2 2 3 4 5 5 5 5 6 6 5 5 5 5 4 4 4 4 3 2 2 2 3 4 5 6 7 6 7 8
6 6 7 6 5 2 2 5 9 12 14 16 16 17 17 18 20 21 21 21 19 18 19 19 18 16 16 15 14 14 13 13 12 12 12 11 10 10 9 8 7 8 8 8 9 8 6 6 5 4 4 4 3 2 2 2 1 2 3 4 4 4 4 5 5 5 5 5 5 4 4 4 4 4 3 3 3 3 3 4 5 5 5 5 6
7 7 6 6 6 4 1 3 6 8 10 13 15 15 15 15 18 20 20 19 18 17 18 18 17 16 16 15 15 14 13 13 13 12 12 12 11 11 10 9 8 8 9 9 10 9 8 7 7 6 6 5 4 3 2 2 2 2 3 3 3 3 3 3 3 4 4 4 4 4 3 4 4 4 4 4 4 4 3 3 3 4 4 4 4
8 8 7 7 6 4 3 3 4 6 8 10 12 13 12 12 14 17 17 17 17 16 16 17 17 16 16 16 15 14 14 13 13 12 12 12 12 11 11 11 10 9 9 11 11 10 10 9 8 8 7 6 6 5 4 3 3 3 3 3 3 3 3 2 2 2 2 2 3 3 2 3 4 4 4 4 4 4 4 3 3 4 3 4 4
9 9 9 8 7 6 5 4 4 5 7 8 9 10 10 11 12 15 15 15 15 14 14 14 15 15 15 15 15 15 14 13 12 12 12 12 12 12 11 12 12 11 11 12 12 12 11 11 10 9 9 8 7 6 5 5 4 4 4 4 4 4 3 3 2 2 1 1 1 2 2 2 3 3 3 4 4 4 5 5 5 5 4 4 5
9 9 9 8 8 8 7 6 6 7 7 8 8 8 8 8 9 11 13 13 12 12 12 12 13 13 12 13 14 14 14 14 13 13 12 12 13 12 12 12 12 13 13 14 14 14 13 13 12 11 10 10 9 8 7 7 6 5 5 5 5 4 4 4 3 2 2 1 1 0 1 1 2 3 3 3 3 4 5 5 6 6 6 6 6
9 9 9 9 10 10 9 8 7 8 8 9 8 8 9 9 8 8 9 9 10 9 9 9 9 10 10 10 12 13 14 14 13 13 13 13 13 13 13 12 13 13 14 15 16 15 15 15 14 13 12 12 11 10 10 9 8 7 6 6 6 5 5 4 4 3 2 2 2 1 1 1 2 3 3 3 4 4 5 5 6 6 6 6 7
8 9 9 10 11 11 10 9 8 9 9 9 8 8 9 10 8 7 7 7 7 7 7 7 7 7 8 9 11 12 13 13 13 13 14 14 13 13 13 13 13 13 14 15 16 16 16 16 16 15 15 14 14 13 12 11 10 9 8 7 7 7 6 6 6 5 4 3 3 2 2 2 2 3 4 4 5 5 6 6 7 6 7 7 7
8 9 9 9 11 12 12 11 10 10 10 10 9 8 9 11 10 8 7 6 5 5 7 7 7 7 8 9 10 11 12 12 13 14 14 14 14 13 12 13 14 14 15 16 16 17 17 17 17 17 16 16 16 15 14 13 12 11 10 9 8 8 8 7 7 6 6 5 4 3 3 2 3 4 4 5 6 6 6 7 7 7 8 8 8
8 9 8 9 11 12 13 13 13 12 12 12 11 10 9 10 10 8 6 6 5 4 5 6 6 6 6 8 9 10 13 14 14 14 15 15 16 15 13 13 14 14 15 16 17 17 18 18 18 18 18 18 17 16 16 14 13 13 12 11 11 10 10 9 8 8 7 7 5 5 4 3 4 4 5 6 6 6 6 7 7 8 9 10 10
8 8 7 8 9 10 11 12 13 13 13 13 13 13 13 12 11 9 7 5 4 4 5 5 5 6 7 8 8 10 15 16 14 14 14 15 17 17 16 15 15 15 16 16 17 18 18 18 19 19 18 18 17 17 16 16 15 14 14 13 13 12 12 11 10 9 8 7 6 6 5 4 4 4 5 6 6 6 6 7 9 9 10 10 10
8 8 7 7 8 8 9 10 11 12 13 13 13 13 13 13 12 11 10 7 5 3 2 2 3 5 7 8 9 11 13 14 14 14 14 14 15 16 17 17 18 19 19 18 18 18 19 20 20 19 19 18 18 17 17 17 16 15 15 15 14 14 13 13 12 11 9 8 7 6 5 5 4 5 5 5 6 6 7 8 9 10 10 11 11
7 8 7 7 7 7 8 9 9 10 11 11 12 12 12 12 10 10 10 8 7 7 6 4 2 1 3 5 9 12 12 13 13 14 14 16 19 20 19 19 19 19 19 19 19 19 19 21 21 20 20 19 18 18 18 18 17 17 17 17 16 15 14 13 12 11 10 9 8 7 6 5 5 5 5 6 6 7 8 9 10 11 11 12 13
6 7 7 7 7 7 8 9 8 9 9 9 10 10 10 10 9 9 9 8 7 7 6 6 5 3 2 1 5 8 9 9 10 12 14 18 20 20 20 19 19 20 20 19 19 18 19 20 21 21 21 20 20 20 20 19 18 18 18 17 16 15 14 13 12 11 10 10 9 7 7 6 6 6 5 5 5 7 8 9 10 11 12 12 13
5 6 7 7 7 7 8 8 8 8 8 8 8 9 8 8 8 8 8 8 7 6 6 5 4 3 2 1 2 3 4 4 6 10 14 16 16 16 18 19 18 18 19 19 18 18 19 20 21 22 23 22 22 21 20 20 19 19 18 17 15 15 13 12 12 11 10 9 9 8 7 6 6 6 6 6 6 8 10 10 11 11 12 13 14
6 6 7 7 7 7 7 7 7 7 7 6 7 8 7 7 7 7 6 6 6 5 5 4 3 3 3 4 4 5 5 4 5 7 9 11 12 14 17 18 18 18 18 18 18 18 19 20 21 21 21 21 21 20 20 22 21 20 18 16 15 15 14 12 12 11 10 9 8 8 7 7 8 10 11 11 12 13 13 13 12 12 12 13 14
6 6 6 7 7 7 7 7 6 5 6 6 6 6 6 6 6 5 5 5 4 4 4 3 3 3 4 5 6 6 7 7 7 8 8 9 9 10 12 13 15 17 18 18 18 18 19 20 21 20 20 20 21 21 23 24 24 21 17 15 15 14 13 13 11 10 10 9 8 8 7 9 11 13 14 14 13 12 13 14 15 14 14 14 14
6 6 6 6 7 6 6 6 6 5 5 5 4 4 4 4 4 4 4 5 4 4 4 4 4 4 5 6 7 7 7 8 8 9 10 10 10 10 9 10 11 13 15 16 16 17 18 20 22 22 22 23 24 24 24 25 26 22 16 14 14 13 12 12 10 10 9 8 8 8 7 8 10 11 12 13 13 14 15 16 17 16 16 16 17
7 5 5 6 6 6 5 5 4 4 4 4 4 2 3 3 3 3 3 3 3 3 4 4 5 6 6 6 7 7 8 9 9 9 10 10 11 11 11 11 11 12 14 14 15 16 17 19 20 20 20 22 24 25 25 25 27 25 18 14 13 12 12 11 10 9 8 8 7 7 7 7 9 10 12 13 14 16 17 18 18 17 17 17 18
7 5 4 4 4 5 5 4 3 2 3 4 3 2 2 2 2 2 2 3 4 4 5 5 6 7 7 7 7 8 9 9 9 9 10 10 11 12 12 13 13 14 14 14 16 17 17 18 18 17 18 20 22 25 26 25 25 26 22 16 12 12 12 11 10 10 9 8 7 7 8 8 9 11 13 13 13 14 15 16 16 16 18 19 20
5 4 3 2 2 4 4 3 2 2 3 3 2 1 1 2 3 3 4 5 6 6 6 7 8 8 8 8 8 8 9 9 9 10 10 11 11 12 13 13 14 14 15 15 17 17 17 18 18 18 19 21 23 25 26 26 26 26 25 19 12 11 11 10 9 9 8 8 8 8 9 10 10 10 11 12 11 12 13 13 14 15 17 18 20
5 4 3 2 0 1 2 2 1 2 2 2 2 2 3 4 4 5 5 6 7 7 7 8 8 9 9 9 9 9 9 10 10 10 11 12 12 13 13 13 14 14 15 16 16 17 18 18 18 19 19 20 22 24 25 27 27 27 26 20 11 10 10 8 8 9 8 8 9 9 10 11 11 11 12 12 12 12 13 14 14 16 17 18 19
3 4 4 4 3 1 1 1 2 3 3 3 4 4 5 6 6 6 7 7 8 8 8 8 9 9 10 9 9 10 10 10 11 11 12 12 13 13 13 13 14 15 15 16 15 16 16 16 17 19 17 16 19 22 24 26 27 28 26 18 10 9 8 7 8 8 8 9 10 10 10 11 10 10 13 15 15 15 15 15 16 17 17 18 19
5 5 6 6 5 2 1 1 3 4 5 5 5 5 6 7 7 8 8 9 9 10 10 10 10 10 10 9 9 10 11 11 11 12 13 13 13 13 13 13 14 15 15 16 16 15 15 16 17 16 14 16 20 21 23 25 27 26 23 15 9 8 8 8 8 8 8 9 10 11 11 11 11 12 15 17 17 17 16 15 16 17 18 19 19
7 7 8 8 6 3 3 4 4 5 6 6 6 6 7 9 9 9 10 10 11 11 12 12 12 12 11 11 11 11 12 12 12 12 13 13 13 13 13 13 13 14 15 15 15 15 15 14 14 12 14 18 21 22 23 25 24 23 19 12 8 8 7 7 7 7 8 9 11 12 13 13 13 15 17 18 18 18 15 14 16 17 18 20 19
7 7 8 8 6 6 7 7 6 7 6 6 7 8 9 10 10 10 11 12 12 13 13 14 14 14 14 13 13 13 13 13 13 13 13 13 13 13 13 13 13 14 15 15 15 16 13 9 8 11 14 17 21 23 22 22 21 19 16 10 5 5 5 5 6 7 8 9 10 12 15 17 18 18 19 19 19 18 16 14 16 18 20 21 20
9 8 7 7 8 9 9 8 8 8 8 8 9 10 10 10 11 11 12 12 13 14 15 16 16 16 16 15 15 14 14 13 14 14 13 13 13 13 13 13 14 14 14 14 12 10 6 7 9 12 14 17 23 24 21 19 18 16 14 9 4 2 3 4 5 6 8 9 11 12 14 15 14 14 16 17 18 18 16 15 16 18 21 22 22
11 9 8 9 11 11 10 10 10 10 10 9 10 10 11 11 11 12 13 13 14 15 16 17 17 17 17 17 17 16 15 15 14 14 14 13 13 13 13 14 14 15 14 10 3 4 9 11 10 12 15 20 25 24 19 16 13 11 11 8 4 1 2 4 5 7 9 11 12 11 11 10 7 8 12 13 14 16 17 17 18 20 23 26 26
12 12 11 11 12 11 11 12 12 11 11 11 11 12 12 13 13 14 14 15 15 16 17 18 18 19 19 18 18 17 16 15 14 14 14 14 14 14 14 14 14 14 11 5 5 9 11 12 13 15 19 22 22 19 15 12 10 8 7 6 4 3 5 6 7 9 10 11 12 11 10 9 8 8 11 14 16 19 21 22 23 24 27 28 29
13 14 14 14 14 13 13 13 12 12 12 12 12 13 14 14 15 16 16 16 16 17 18 19 19 19 19 19 18 18 17 16 15 15 16 16 15 15 15 14 13 11 9 7 7 10 12 15 16 16 18 19 17 14 13 11 9 7 6 5 4 5 7 7 8 10 11 12 12 11 10 11 12 14 18 21 23 24 24 23 23 23 24 24 25
14 15 16 16 16 16 15 15 14 14 13 13 14 15 16 17 17 17 17 18 18 18 19 19 18 18 18 18 19 19 18 17 17 18 18 17 17 17 15 13 10 8 9 9 10 13 15 16 16 16 16 16 15 14 12 9 7 6 4 4 4 6 8 8 8 10 11 12 12 12 14 16 18 21 23 24 24 22 21 20 19 19 20 22 23
17 18 17 17 18 17 16 16 16 15 15 15 15 16 18 18 19 18 18 19 19 19 19 19 19 19 19 19 20 19 20 20 20 19 18 17 18 18 14 10 9 10 11 12 13 14 16 16 16 16 15 14 14 13 10 7 4 2 2 3 4 6 8 8 9 10 11 12 14 15 17 19 20 21 21 21 20 20 19 19 19 20 21 21 21
20 20 19 19 19 18 18 17 17 17 16 16 16 17 19 19 19 19 19 19 20 21 21 21 21 22 21 21 21 21 21 22 21 19 18 16 14 13 11 10 12 12 14 15 15 16 16 15 15 14 14 13 13 12 9 7 4 1 3 3 5 7 7 9 12 13 11 12 13 13 15 17 18 19 18 17 18 19 19 20 20 21 21 20 19
22 20 19 19 19 18 18 18 18 17 16 17 18 19 19 20 20 19 19 20 21 22 23 23 24 24 23 23 23 22 21 21 20 18 15 10 7 7 10 13 14 16 18 19 18 18 17 15 14 13 12 12 12 11 9 7 4 0 3 4 6 7 7 9 11 12 12 13 15 16 17 17 17 17 16 16 18 19 19 19 18 18 18 18 19
22 21 20 19 19 19 18 18 18 18 18 18 19 19 19 19 19 19 18 19 21 22 24 25 25 25 24 24 24 22 19 18 15 10 7 6 6 9 12 13 15 17 19 19 18 17 17 15 14 12 12 12 10 9 9 6 3 1 2 4 4 5 7 8 9 13 16 18 17 16 16 15 14 15 15 15 16 17 17 17 17 17 18 18 19
22 21 19 19 20 19 19 19 19 18 18 18 18 19 18 17 16 16 16 18 20 22 24 25 25 25 26 25 22 17 13 11 8 8 9 9 10 13 16 16 16 17 18 17 15 15 16 15 13 10 10 11 10 10 8 4 2 1 2 3 5 7 8 8 10 15 16 15 12 11 12 13 13 14 14 15 16 16 16 17 17 18 19 19 19
21 20 20 20 20 20 19 19 18 17 17 17 17 17 15 12 12 14 15 17 20 21 22 23 22 21 21 20 15 9 9 12 14 16 17 17 16 18 20 20 17 16 17 17 16 15 16 16 15 12 11 11 11 10 6 4 3 3 4 6 7 8 8 9 12 15 12 10 10 11 12 13 14 14 15 15 16 17 17 18 18 19 19 19 20
20 20 20 20 20 19 18 18 18 17 17 16 16 14 10 8 9 11 13 14 16 17 16 15 11 9 9 10 11 12 15 17 19 21 23 24 24 22 22 21 18 17 18 18 17 16 15 15 16 16 14 12 10 8 6 5 5 5 7 8 7 7 7 9 12 13 9 8 11 12 13 14 15 15 15 16 16 17 18 19 19 20 20 20 20
Wind_Direction
185 172 163 163 163 161 160 161 163 163 165 164 161 162 159 157 157 156 158 159 160 164 165 167 164 157 155 149 142 138 126 119 115 96 90 82 74 72 63 38 348 344 326 321 313 298 295 295 308 314 294 250 220 222 235 240 228 233 248 245 242 242 252 258 236 202 218 226 245 257 263 271 277 282 285 282 271 255 242 238 239 241 235 227 225
189 182 169 166 164 165 166 166 169 169 171 171 168 166 163 161 160 159 160 161 167 168 166 169 165 156 155 150 146 138 127 127 124 102 97 93 78 68 57 46 11 340 335 344 320 294 297 299 318 339 345 31 183 189 209 238 231 235 250 244 243 245 245 252 251 235 232 230 222 248 269 272 275 279 278 276 274 268 255 244 239 240 244 239 232
186 185 178 173 167 169 172 172 176 176 175 176 174 172 168 167 164 161 163 163 166 167 165 167 158 144 142 141 138 126 112 106 110 109 108 102 90 81 69 61 36 7 14 3 330 344 338 317 336 352 3 41 50 70 127 162 184 223 244 233 234 244 244 247 247 237 229 228 210 225 257 287 284 278 273 268 264 264 263 264 264 249 241 241 239
176 184 184 181 173 173 177 177 179 180 179 179 179 178 174 173 169 165 165 164 164 166 163 157 147 137 131 128 119 117 119 117 118 118 114 108 99 85 78 74 54 55 65 57 50 37 13 349 350 356 1 16 23 41 72 69 79 102 225 219 221 240 246 246 245 238 228 223 239 238 166 163 260 275 275 272 267 261 255 271 295 283 260 257 248
177 198 197 191 182 178 181 181 181 183 182 181 181 181 178 175 171 167 166 165 163 164 161 153 149 144 139 134 123 122 132 140 138 131 126 120 106 94 94 90 73 67 66 61 64 59 33 13 358 358 4 3 5 18 43 44 48 56 53 69 132 234 253 234 221 225 222 223 230 237 165 219 251 32 49 283 288 282 260 265 294 290 278 292 284
184 205 208 203 192 186 185 183 184 187 185 183 181 181 179 175 173 169 166 165 163 163 162 158 158 158 156 153 149 146 150 153 148 140 136 127 113 109 106 96 85 78 71 67 68 62 48 38 15 6 16 17 12 23 34 32 32 28 18 39 90 116 10 123 149 155 208 223 236 262 272 199 119 57 114 301 286 276 264 260 282 283 275 295 312
201 211 212 209 200 194 191 187 188 188 185 183 181 181 179 176 174 170 167 166 163 164 164 163 166 169 170 166 162 161 156 148 143 140 134 125 122 120 113 106 99 88 79 76 73 63 55 48 33 22 32 38 32 41 45 39 41 34 18 17 38 46 34 86 116 127 196 209 269 307 318 131 122 87 349 350 318 275 285 278 276 274 274 277 278
203 213 211 211 206 203 200 195 192 189 185 184 181 180 179 177 176 172 169 166 164 165 167 169 171 173 177 171 165 165 153 144 142 141 136 130 132 131 126 124 115 103 93 90 87 79 72 65 54 44 39 42 50 57 52 48 55 52 43 34 28 28 22 41 84 63 36 54 73 24 11 43 114 43 30 13 354 331 335 328 295 288 288 275 262
206 215 213 215 213 209 205 201 198 192 187 185 182 179 179 178 176 174 172 167 166 168 169 174 176 176 179 173 168 165 151 149 152 147 144 140 140 140 134 133 126 115 106 100 101 96 92 83 66 52 38 33 42 55 57 54 56 53 52 51 47 48 38 25 27 34 35 31 21 357 8 53 151 127 71 31 158 240 301 344 329 323 308 284 275
217 218 213 220 224 219 209 202 199 195 190 186 181 179 178 179 177 176 174 169 168 170 170 175 178 178 181 176 172 166 156 159 160 152 153 153 150 149 145 142 137 129 121 115 114 109 103 91 75 60 43 37 42 53 57 56 58 56 55 56 54 56 55 46 37 39 42 29 11 355 343 339 211 181 190 213 195 208 237 250 237 232 268 284 288
250 234 208 211 228 230 218 206 198 195 193 187 181 180 179 179 178 177 176 173 171 171 172 176 178 181 183 180 175 169 162 164 163 161 166 166 162 161 160 154 146 142 138 134 128 122 115 101 87 72 57 47 47 50 52 56 61 61 59 59 58 57 57 56 51 46 43 40 26 14 15 13 351 328 324 345 326 270 275 261 235 219 211 244 270
308 322 42 80 231 229 222 210 198 194 193 190 184 181 180 180 179 177 176 175 173 173 175 176 179 183 184 181 179 173 169 169 168 169 173 173 173 174 170 163 158 156 156 154 149 142 132 120 106 89 73 57 49 48 51 57 61 62 62 61 60 59 57 54 55 47 41 43 39 27 27 34 18 3 4 351 326 319 315 301 289 279 256 255 254
353 14 42 41 332 228 218 209 199 193 195 195 188 182 181 181 179 178 178 177 175 175 177 178 180 183 184 183 182 178 176 177 176 175 177 179 180 181 179 174 170 169 171 171 167 164 156 145 137 116 93 77 67 61 61 63 66 67 66 65 63 62 57 57 56 47 39 39 41 37 30 35 47 30 7 346 316 308 302 293 299 305 302 296 282
22 26 39 38 21 259 205 202 199 199 202 204 196 185 182 182 182 181 179 177 175 175 178 181 182 183 185 185 185 184 182 183 184 182 183 186 185 185 189 187 180 179 181 181 177 176 175 167 160 145 129 119 103 92 84 79 74 76 74 69 66 65 61 60 58 52 44 37 32 34 36 34 35 27 4 344 336 319 312 318 318 309 300 291 285
36 39 42 42 39 35 183 198 204 205 208 211 205 192 183 183 184 183 181 178 177 176 179 183 183 184 186 187 189 190 189 189 191 190 187 191 190 187 191 195 190 186 186 185 182 183 184 180 176 168 161 156 144 133 120 105 93 87 85 79 72 68 65 62 59 55 49 41 35 29 32 36 25 14 7 353 352 353 337 333 329 317 303 291 288
48 53 53 57 59 53 108 185 200 204 207 209 207 199 189 183 184 184 183 180 178 178 180 184 184 186 189 192 194 196 196 196 197 197 193 193 194 190 192 197 196 191 189 186 183 187 189 187 187 183 177 175 169 166 165 146 141 129 115 111 103 90 83 79 72 67 54 44 37 22 21 39 24 5 6 4 358 348 331 322 315 315 316 312 310
56 60 60 63 68 73 97 136 170 185 195 198 199 197 189 181 180 182 183 181 182 181 181 183 185 188 191 194 198 201 203 204 203 203 198 194 197 196 194 195 196 196 191 187 187 191 193 192 194 192 187 188 183 182 184 175 175 171 153 149 145 138 130 115 101 86 70 53 42 22 16 38 26 8 5 2 355 340 327 315 297 290 296 306 312
61 64 64 61 61 68 87 108 128 149 164 172 179 183 181 179 177 179 181 181 182 182 183 186 187 190 194 197 201 203 206 210 211 209 205 201 201 201 200 198 197 198 194 189 190 193 195 196 198 198 194 194 192 192 192 188 193 189 175 175 167 162 166 156 146 131 105 72 52 23 8 33 25 5 353 347 342 336 327 316 306 294 279 283 297
63 64 64 64 64 65 72 82 99 118 130 139 147 150 155 163 166 172 180 182 181 181 185 189 190 193 200 202 204 207 209 213 216 216 212 210 210 210 209 206 201 200 197 193 193 195 196 198 201 202 200 198 197 197 196 193 200 198 192 195 186 184 191 177 169 168 160 163 133 39 350 20 11 343 329 323 321 320 319 314 310 304 292 286 287
67 67 65 67 72 72 74 76 84 97 104 112 118 122 130 135 137 149 165 176 181 181 182 187 190 195 205 212 214 214 215 216 219 223 222 220 221 220 219 216 209 206 203 197 196 198 198 199 202 204 202 202 201 200 198 198 202 201 203 205 196 199 208 196 188 186 182 195 195 201 242 276 334 331 321 311 306 301 300 301 301 298 292 286 281
75 76 73 72 75 77 82 87 91 94 94 96 100 102 106 106 110 125 140 156 174 180 179 188 198 201 211 223 229 228 227 225 225 229 231 229 228 228 227 226 219 215 213 207 203 204 203 202 203 205 205 204 204 203 200 199 201 201 204 206 196 201 215 209 200 201 203 204 208 228 233 223 261 304 308 302 298 290 283 282 281 282 281 278 277
86 86 83 81 82 79 80 82 85 89 90 92 98 100 101 103 104 108 116 130 154 176 178 187 202 210 214 219 229 238 240 238 235 235 237 236 236 235 232 231 227 223 221 217 214 212 209 207 207 208 208 208 207 205 201 200 202 202 201 201 198 203 213 210 205 211 211 203 208 239 245 232 255 281 289 292 297 294 288 284 281 282 284 283 280
94 93 91 89 91 91 90 87 84 83 82 85 87 87 92 102 107 107 114 129 151 176 175 181 199 218 227 216 214 229 237 239 238 237 238 240 241 241 236 233 231 229 226 223 222 222 218 214 213 212 211 211 209 207 203 201 203 203 201 201 201 205 210 207 206 213 214 205 205 221 231 235 250 266 276 284 290 288 287 290 290 287 285 283 282
103 99 95 95 94 94 94 93 91 87 82 81 81 78 76 78 83 88 94 113 149 180 186 189 197 215 232 225 216 225 231 234 236 232 233 238 241 242 240 237 233 230 229 225 225 229 226 221 220 219 216 214 212 208 204 204 205 205 205 204 204 205 207 205 206 211 211 206 207 217 228 233 241 259 272 279 284 284 287 292 293 291 287 284 281
114 107 100 96 91 87 86 86 88 88 85 82 82 81 79 77 78 83 84 84 86 101 132 173 206 217 227 228 229 230 226 226 231 228 224 227 233 233 232 234 234 230 228 226 224 227 229 228 226 224 223 220 218 215 209 205 206 207 206 207 207 207 206 205 205 206 206 206 212 221 228 234 245 261 271 278 285 290 294 294 293 293 292 292 289
124 115 108 99 91 86 81 79 79 82 84 84 83 81 81 79 79 80 81 79 72 67 70 67 59 217 224 237 245 244 235 228 231 232 226 223 228 231 228 230 235 234 232 230 227 226 230 230 227 226 229 227 224 224 218 211 208 208 207 207 208 207 205 205 205 203 203 205 209 217 226 236 243 254 265 277 286 290 291 291 292 292 292 293 290
135 130 124 112 102 93 87 83 79 79 79 80 80 77 75 74 72 69 66 63 58 52 55 59 52 53 72 251 258 256 250 244 244 246 242 233 232 235 235 232 233 235 234 233 232 229 230 230 227 227 229 226 225 226 223 217 212 209 208 207 206 206 205 204 203 201 202 204 206 213 223 230 238 252 262 269 281 290 291 290 289 288 289 290 288
153 139 129 120 110 102 95 92 87 84 81 80 79 76 71 67 62 60 57 52 46 38 36 37 28 23 22 338 295 280 276 277 267 256 252 247 242 244 247 244 241 239 236 234 233 231 228 228 229 231 230 227 224 222 218 219 218 212 207 206 204 201 201 202 201 201 202 203 206 214 222 227 236 241 240 251 276 287 288 288 288 288 288 287 286
177 148 131 122 114 106 99 91 86 86 85 81 81 80 78 72 61 56 52 47 41 31 24 16 2 348 329 317 311 306 301 292 280 267 260 258 253 247 246 247 246 245 245 242 237 232 230 230 232 236 234 227 219 216 219 225 225 214 203 200 199 197 198 199 198 201 204 205 210 218 221 221 228 233 242 261 278 281 276 274 277 281 283 283 282
184 158 140 127 119 114 108 97 85 81 79 71 65 65 70 70 60 51 41 33 27 18 7 348 333 320 310 304 297 294 291 282 280 279 276 274 267 254 245 241 239 239 242 243 239 236 235 235 235 237 236 227 219 222 228 229 222 210 198 194 194 195 197 197 196 200 202 205 214 223 227 232 243 255 266 278 284 281 275 272 272 273 274 276 279
192 167 151 138 128 118 112 108 100 94 90 82 69 57 62 61 49 39 25 12 1 352 339 320 310 302 295 291 287 283 280 278 277 275 274 274 272 268 258 247 241 237 236 237 236 237 239 239 239 240 237 227 219 222 231 229 215 202 193 191 191 190 192 194 194 197 202 210 220 228 236 246 258 270 279 288 291 286 282 280 279 277 272 269 270
206 193 168 147 135 122 111 105 104 107 104 92 77 59 66 57 39 33 17 353 336 318 302 295 292 290 289 289 286 284 281 279 277 273 272 273 271 269 261 250 244 241 239 238 234 234 237 241 243 238 229 224 220 223 230 226 212 202 196 190 187 185 186 190 193 198 206 215 224 233 240 250 260 264 269 278 283 281 280 281 281 281 278 273 269
214 216 191 156 134 120 109 94 86 81 61 49 34 29 47 27 358 359 343 323 312 299 292 291 287 287 290 288 284 281 279 277 276 273 273 272 269 268 264 257 251 245 242 240 236 234 234 238 240 231 221 226 229 228 226 218 208 203 197 186 182 185 187 190 195 200 208 218 229 241 250 256 262 264 267 270 271 275 280 283 283 281 277 274 272
203 223 218 170 116 104 98 90 82 56 25 1 343 359 357 327 325 334 328 319 312 304 299 296 293 293 293 288 284 281 277 275 275 273 272 269 266 265 262 259 257 252 247 242 239 237 236 237 238 232 226 228 228 223 219 213 206 202 196 189 185 184 183 188 197 201 212 224 234 247 256 261 266 268 269 270 271 278 284 285 285 279 273 273 273
193 219 244 261 205 114 99 90 49 6 324 296 301 326 319 312 315 315 309 303 300 297 294 291 292 293 291 286 283 281 280 280 278 273 270 266 264 263 261 259 257 255 251 248 243 240 239 239 240 236 232 227 220 216 213 209 207 205 199 192 179 173 180 194 206 212 223 232 240 250 258 263 268 270 271 269 270 276 281 284 285 281 278 277 274
213 233 253 267 268 263 91 40 327 313 299 300 313 317 309 304 302 298 294 293 292 290 288 286 285 287 286 282 279 278 277 277 275 272 269 265 263 261 260 259 258 256 255 252 247 243 240 238 239 238 230 216 208 207 205 204 205 203 197 188 172 172 191 211 218 224 234 240 247 252 256 261 266 270 274 274 274 276 280 284 285 283 282 280 276
241 244 252 256 260 268 295 302 298 295 297 301 302 300 296 291 289 289 289 291 291 290 290 289 288 287 285 282 278 277 275 273 271 269 266 264 264 262 259 259 259 258 256 253 250 247 242 239 241 236 218 200 193 193 195 198 199 196 189 181 178 188 206 222 224 232 244 249 253 252 252 260 267 273 278 280 280 281 282 284 284 283 284 282 280
247 251 253 252 257 282 298 293 286 281 283 287 287 288 286 283 281 282 286 289 290 291 292 293 293 292 290 286 282 279 278 275 272 271 269 267 265 263 261 259 258 259 259 257 254 249 245 245 243 225 201 190 182 181 189 192 189 184 177 172 189 204 215 228 231 242 253 257 261 259 257 260 264 270 275 277 279 281 283 284 283 284 285 284 283
262 264 264 263 274 290 291 285 278 278 281 282 283 283 280 279 279 280 283 286 288 289 291 293 294 293 291 288 285 282 279 277 274 272 271 270 268 266 264 261 260 262 260 257 257 253 244 235 212 189 186 186 176 173 179 179 173 171 167 162 180 205 218 241 254 263 268 268 271 274 274 272 270 269 269 270 274 276 277 279 280 283 286 285 285
265 272 282 286 286 285 283 278 276 278 280 277 276 277 276 276 277 277 278 281 283 286 290 292 292 291 288 286 283 279 276 274 274 272 269 268 267 265 264 263 263 264 261 261 264 252 207 158 156 165 173 179 173 167 167 167 164 167 170 169 168 210 247 263 271 276 280 281 280 281 284 282 276 265 259 259 265 268 272 276 277 279 282 284 287
276 283 292 290 286 285 283 281 280 279 277 275 276 276 276 276 276 274 275 278 281 283 286 288 288 286 284 283 281 278 276 274 273 271 269 268 266 264 264 264 263 262 260 261 254 146 135 130 146 164 168 169 167 161 159 162 162 164 178 187 179 221 267 271 286 288 285 285 284 285 287 286 275 253 251 258 268 275 279 280 277 276 277 278 282
289 292 291 287 283 281 278 276 278 278 278 279 279 279 280 280 278 276 277 278 280 282 283 284 284 283 282 282 279 276 274 272 270 269 268 267 267 267 266 265 264 258 248 224 123 122 124 120 132 154 159 159 160 157 153 156 161 171 194 203 199 230 258 276 294 291 284 283 285 286 285 283 282 281 283 288 292 292 292 288 281 279 279 278 279
291 291 291 291 288 286 283 282 282 281 280 280 279 279 280 280 278 279 280 280 279 281 281 281 281 281 280 279 277 274 270 267 266 268 268 268 267 266 265 264 259 242 218 186 148 138 131 121 123 136 145 149 153 156 154 159 172 190 217 239 247 264 279 290 292 287 287 288 286 283 280 279 285 292 293 294 295 295 294 290 286 284 284 283 282
286 286 288 289 287 285 285 285 285 285 284 282 280 280 281 281 281 282 282 280 278 279 279 278 278 278 278 278 277 274 268 266 267 269 269 267 263 261 261 257 242 212 190 181 165 146 135 130 129 133 138 144 152 159 166 179 195 211 243 267 279 296 306 309 301 291 289 288 287 287 287 287 291 294 295 296 298 298 297 294 292 291 290 287 283
285 285 284 284 283 284 285 284 285 285 283 280 279 280 281 281 282 282 280 278 277 277 277 278 279 279 279 278 277 275 271 269 270 268 266 263 261 259 253 231 201 184 178 176 164 146 138 138 138 140 143 147 155 165 176 187 193 218 265 282 311 323 322 319 311 297 286 286 290 292 292 293 294 296 299 301 301 300 300 298 295 294 292 286 281
281 283 284 284 284 285 285 283 282 282 281 281 280 280 281 281 282 281 279 278 278 278 278 280 281 280 278 277 275 275 273 270 267 264 261 261 259 254 235 196 176 175 175 170 157 146 144 143 142 145 148 150 158 171 182 182 172 232 281 283 307 318 320 317 312 307 305 305 303 299 296 295 294 293 295 297 297 297 297 295 293 290 284 275 271
281 283 286 287 286 285 286 286 286 286 285 284 282 280 280 281 282 281 280 278 279 279 278 277 277 275 275 275 272 271 269 268 267 265 258 248 230 211 196 182 174 172 172 167 157 149 147 146 145 146 147 152 163 168 167 165 162 237 299 295 298 303 314 319 314 313 316 314 309 304 302 301 300 296 293 293 294 295 294 294 294 291 284 278 275
281 281 284 286 286 286 288 287 287 286 284 282 281 280 281 283 282 281 282 280 280 278 276 275 275 274 273 272 269 269 268 264 261 254 229 197 173 172 173 170 168 166 162 159 153 147 143 143 146 149 153 157 154 137 124 120 111 40 330 325 321 317 326 328 315 307 307 307 307 306 306 308 308 304 300 298 298 298 299 300 300 297 294 292 289
282 283 283 284 284 284 285 284 284 285 283 280 281 281 282 284 285 287 288 286 283 280 277 276 275 273 271 268 267 267 257 234 201 156 145 142 143 150 148 141 143 149 145 141 141 139 140 142 142 148 156 148 124 104 101 100 71 37 359 341 328 323 328 331 325 320 317 315 314 312 310 311 312 309 306 304 304 305 304 303 302 299 298 295 292
282 282 280 279 279 281 283 284 284 285 284 282 283 284 286 292 298 297 291 286 283 281 278 277 276 273 267 261 252 232 194 170 147 134 131 126 127 139 140 133 134 140 138 137 138 136 136 135 125 117 124 123 109 100 99 83 54 33 7 348 336 335 344 350 350 348 342 328 319 317 316 315 313 310 308 306 305 306 305 303 303 301 298 295 292
280 280 279 279 280 282 283 284 285 284 283 283 285 288 295 306 309 303 295 289 285 281 278 276 271 259 242 222 195 169 155 146 137 131 127 119 114 119 125 127 133 135 131 129 129 126 127 129 124 116 113 111 106 101 90 68 47 21 0 352 353 2 7 4 360 355 344 328 325 322 318 317 314 311 309 307 305 306 304 303 303 301 298 295 292